CST,Max TemperatureF,Mean TemperatureF,Min TemperatureF,Max Dew PointF,MeanDew PointF,Min DewpointF,Max Humidity, Mean Humidity, Min Humidity, Max Sea Level PressureIn, Mean Sea Level PressureIn, Min Sea Level PressureIn, Max VisibilityMiles, Mean VisibilityMiles, Min VisibilityMiles, Max Wind SpeedMPH, Mean Wind SpeedMPH, Max Gust SpeedMPH,PrecipitationIn, CloudCover, Events, WindDirDegrees
2013-1-1,52,46,40,48,43,35,93,86,79,30.15,30.06,30.00,10,7,3,14,5,20,1.11,8,Rain,355
2013-1-2,40,37,33,36,30,27,85,78,70,30.27,30.21,30.13,10,8,7,12,5,15,0.00,6,,353
2013-1-3,48,40,31,27,24,18,78,57,36,30.43,30.34,30.25,10,9,7,10,4,14,0.00,0,,341
2013-1-4,49,37,24,28,23,20,88,61,34,30.51,30.44,30.40,10,10,10,6,1,13,0.00,0,,325
2013-1-5,50,38,25,37,29,22,92,67,42,30.45,30.36,30.29,10,10,8,9,2,12,0.03,5,Rain,225
2013-1-6,53,45,36,37,35,28,92,70,48,30.38,30.28,30.22,10,9,3,14,6,17,0.00,5,,291
2013-1-7,53,40,26,29,26,23,85,62,38,30.44,30.35,30.28,10,8,6,12,3,16,0.00,0,,66
2013-1-8,63,47,30,43,36,26,85,62,39,30.35,30.27,30.24,10,10,8,12,4,13,0.00,1,,122
2013-1-9,58,54,50,55,51,43,96,81,66,30.39,30.34,30.27,10,4,1,10,4,15,1.63,8,Rain,86
2013-1-10,69,64,58,63,59,55,93,85,76,30.34,30.19,30.02,10,7,1,21,10,26,0.28,8,Rain,125
2013-1-11,73,67,61,63,60,57,87,76,64,30.11,30.05,30.01,10,9,4,21,9,31,0.02,7,Rain,199
2013-1-12,73,70,66,66,63,60,93,81,68,30.08,30.00,29.88,10,7,1,20,10,29,1.75,8,Rain-Thunderstorm,186
2013-1-13,74,57,40,64,53,34,93,81,68,30.19,29.98,29.83,10,9,2,32,12,45,0.35,8,Rain-Thunderstorm,249
2013-1-14,41,38,34,34,29,28,89,82,75,30.32,30.25,30.19,10,7,2,16,9,24,0.42,8,Rain,24
2013-1-15,38,36,34,36,33,30,92,87,82,30.20,30.10,30.02,10,5,2,14,6,17,1.13,8,Rain,28
2013-1-16,39,38,36,36,34,32,92,87,82,30.14,30.09,30.04,10,7,5,12,5,17,0.30,8,Rain,350
2013-1-17,47,41,34,34,30,23,89,72,54,30.45,30.15,30.04,10,7,1,20,9,28,0.12,6,Rain-Snow,344
2013-1-18,52,40,27,33,28,23,85,63,41,30.60,30.49,30.42,10,10,5,12,3,16,0.00,0,,86
2013-1-19,59,43,26,32,29,25,85,59,33,30.41,30.32,30.23,10,10,4,16,5,21,0.00,0,,196
2013-1-20,59,46,32,37,33,30,89,65,40,30.27,30.21,30.17,10,10,9,10,1,14,0.00,0,,320
2013-1-21,49,40,31,31,20,14,92,59,26,30.32,30.25,30.16,10,10,10,15,6,23,0.00,0,,342
2013-1-22,42,34,26,20,16,12,63,48,32,30.44,30.37,30.31,10,10,10,9,4,13,0.00,3,,22
2013-1-23,58,45,32,38,28,19,76,57,38,30.38,30.29,30.21,10,10,10,13,3,16,0.00,5,,207
2013-1-24,48,43,37,38,23,15,76,55,33,30.44,30.34,30.22,10,10,10,18,7,24,0.00,5,,49
2013-1-25,56,48,39,52,39,19,92,66,40,30.26,30.16,30.09,10,7,2,18,7,26,0.08,8,Rain,291
2013-1-26,54,44,34,35,32,30,89,65,41,30.35,30.31,30.26,10,8,4,7,3,12,0.00,4,,77
2013-1-27,55,50,44,39,36,32,70,61,51,30.35,30.30,30.26,10,10,6,14,6,18,T,5,Rain,111
2013-1-28,68,58,48,52,47,39,83,71,58,30.30,30.23,30.16,10,10,8,15,8,20,0.00,5,,159
2013-1-29,74,63,51,63,58,48,93,79,64,30.16,29.96,29.66,10,8,3,23,11,32,0.00,7,,164
2013-1-30,74,56,38,62,48,24,93,72,51,30.01,29.67,29.57,10,7,1,36,15,48,1.52,8,Rain-Thunderstorm,264
2013-1-31,52,42,31,29,25,22,72,51,30,30.20,30.12,30.02,10,10,10,24,13,33,0.00,2,,261